• In Hungary
  • List of Countries
  • For 7 days
  • Water Temperature
  • Satellite Maps
  • Weather Map
  • News
  • Weather Widgets
  • user-avatar
    Login

    Hourly Weather Olochino

    Today, 23 October, Tuesday

    Time Temperature Precipitation Wind Pressure Humidity
    00:00 +3°C° 0.7 mm 5 mps 738 mmHg 85%
    01:00 +3°C° 0.7 mm 5 mps 737 mmHg 86%
    02:00 +3°C° 0.7 mm 5 mps 737 mmHg 88%
    03:00 +3°C° 0.7 mm 5 mps 736 mmHg 88%
    04:00 +5°C° 0.7 mm 4 mps 736 mmHg 89%
    05:00 +5°C° 0.7 mm 4 mps 735 mmHg 90%
    06:00 +5°C° 0.2 mm 4 mps 735 mmHg 89%
    07:00 +5°C° 0.2 mm 4 mps 735 mmHg 87%
    08:00 +5°C° 0.2 mm 4 mps 735 mmHg 86%
    09:00 +5°C° 0 mm 4 mps 735 mmHg 81%
    10:00 +5°C° 0 mm 3 mps 735 mmHg 77%
    11:00 +7°C° 0 mm 3 mps 735 mmHg 73%
    12:00 +7°C° 0 mm 3 mps 734 mmHg 72%
    13:00 +7°C° 0 mm 2 mps 734 mmHg 71%
    14:00 +7°C° 0 mm 2 mps 734 mmHg 70%
    15:00 +6°C° 0 mm 2 mps 733 mmHg 74%
    16:00 +6°C° 0 mm 1 mps 733 mmHg 79%
    17:00 +5°C° 0 mm 1 mps 732 mmHg 84%
    18:00 +5°C° 0 mm 1 mps 732 mmHg 85%
    19:00 +4°C° 0 mm 2 mps 731 mmHg 86%
    20:00 +3°C° 0 mm 2 mps 730 mmHg 87%
    21:00 +3°C° 0 mm 2 mps 730 mmHg 88%
    22:00 +3°C° 0 mm 2 mps 729 mmHg 88%
    23:00 +3°C° 0 mm 2 mps 728 mmHg 89%

    Tomorrow, 24 October, Wednesday

    Time Temperature Precipitation Wind Pressure Humidity
    00:00 +3°C° 0 mm 2 mps 728 mmHg 89%
    01:00 +3°C° 0 mm 2 mps 727 mmHg 89%
    02:00 +3°C° 0 mm 2 mps 726 mmHg 90%
    03:00 +2°C° 0 mm 2 mps 726 mmHg 90%
    04:00 +2°C° 0 mm 2 mps 725 mmHg 90%
    05:00 +2°C° 0 mm 2 mps 724 mmHg 91%
    06:00 +1°C° 0 mm 3 mps 724 mmHg 90%
    07:00 +2°C° 0 mm 3 mps 724 mmHg 89%
    08:00 +2°C° 0 mm 3 mps 724 mmHg 88%
    09:00 +3°C° 0 mm 3 mps 723 mmHg 84%
    10:00 +3°C° 0 mm 3 mps 723 mmHg 81%
    11:00 +4°C° 0 mm 3 mps 723 mmHg 77%
    12:00 +4°C° 0.1 mm 3 mps 723 mmHg 77%
    13:00 +4°C° 0.1 mm 3 mps 723 mmHg 76%
    14:00 +4°C° 0.1 mm 3 mps 723 mmHg 76%
    15:00 +4°C° 0.2 mm 3 mps 723 mmHg 79%
    16:00 +4°C° 0.2 mm 3 mps 723 mmHg 82%
    17:00 +3°C° 0.2 mm 3 mps 723 mmHg 84%
    18:00 +3°C° 0.1 mm 3 mps 723 mmHg 85%
    19:00 +3°C° 0.1 mm 3 mps 723 mmHg 86%
    20:00 +3°C° 0.1 mm 3 mps 723 mmHg 87%
    21:00 +3°C° 0.3 mm 3 mps 723 mmHg 88%
    22:00 +3°C° 0.3 mm 3 mps 723 mmHg 89%
    23:00 +2°C° 0.3 mm 3 mps 723 mmHg 90%

    Day after tomorrow, 25 October, Thursday

    Time Temperature Precipitation Wind Pressure Humidity
    00:00 +2°C° 0.5 mm 3 mps 723 mmHg 90%
    01:00 +2°C° 0.5 mm 3 mps 723 mmHg 90%
    02:00 +3°C° 0.5 mm 4 mps 723 mmHg 91%
    03:00 +1°C° 0.3 mm 4 mps 723 mmHg 90%
    04:00 +1°C° 0.3 mm 4 mps 723 mmHg 90%
    05:00 +1°C° 0.3 mm 4 mps 723 mmHg 90%
    06:00 +1°C° 0.1 mm 4 mps 722 mmHg 89%
    07:00 +1°C° 0.1 mm 5 mps 722 mmHg 89%
    08:00 +1°C° 0.1 mm 5 mps 722 mmHg 88%
    09:00 +1°C° 0.2 mm 5 mps 721 mmHg 87%
    10:00 +2°C° 0.2 mm 6 mps 721 mmHg 86%
    11:00 +2°C° 0.2 mm 6 mps 720 mmHg 86%
    12:00 +2°C° 0.9 mm 7 mps 719 mmHg 85%
    13:00 +2°C° 0.9 mm 7 mps 719 mmHg 85%
    14:00 +1°C° 0.9 mm 8 mps 718 mmHg 84%
    15:00 +1°C° 1.5 mm 8 mps 717 mmHg 84%
    16:00 +1°C° 1.5 mm 8 mps 717 mmHg 83%
    17:00 +1°C° 1.5 mm 9 mps 716 mmHg 83%
    18:00 0°C° 1.2 mm 9 mps 716 mmHg 82%
    19:00 0°C° 1.2 mm 9 mps 716 mmHg 82%
    20:00 0°C° 1.2 mm 9 mps 716 mmHg 82%
    21:00 -1°C° 0.6 mm 9 mps 717 mmHg 82%
    22:00 -1°C° 0.6 mm 8 mps 718 mmHg 82%
    23:00 -1°C° 0.6 mm 8 mps 718 mmHg 81%

    26 October, Friday

    Time Temperature Precipitation Wind Pressure Humidity
    00:00 -1°C° 0.3 mm 8 mps 719 mmHg 81%
    01:00 -1°C° 0.3 mm 7 mps 720 mmHg 81%
    02:00 -2°C° 0.3 mm 7 mps 721 mmHg 80%
    03:00 -2°C° 0 mm 7 mps 722 mmHg 80%
    04:00 -2°C° 0 mm 6 mps 723 mmHg 81%
    05:00 -2°C° 0 mm 6 mps 724 mmHg 81%
    06:00 -2°C° 0 mm 6 mps 724 mmHg 81%
    07:00 -3°C° 0 mm 6 mps 725 mmHg 82%
    08:00 -2°C° 0 mm 5 mps 726 mmHg 82%
    09:00 -2°C° 0 mm 6 mps 726 mmHg 81%
    10:00 -1°C° 0 mm 6 mps 727 mmHg 79%
    11:00 +1°C° 0 mm 6 mps 728 mmHg 78%
    12:00 +1°C° 0 mm 6 mps 728 mmHg 78%
    13:00 +1°C° 0 mm 5 mps 729 mmHg 78%
    14:00 +1°C° 0 mm 5 mps 729 mmHg 77%
    15:00 0°C° 0 mm 4 mps 730 mmHg 79%
    16:00 0°C° 0 mm 4 mps 730 mmHg 81%
    17:00 0°C° 0 mm 4 mps 731 mmHg 83%
    18:00 +1°C° 0 mm 3 mps 731 mmHg 85%
    19:00 +1°C° 0 mm 3 mps 731 mmHg 86%
    20:00 +1°C° 0 mm 3 mps 732 mmHg 88%
    21:00 0°C° 0 mm 3 mps 732 mmHg 89%
    22:00 0°C° 0 mm 3 mps 733 mmHg 91%
    23:00 0°C° 0 mm 3 mps 733 mmHg 92%

    27 October, Saturday

    Time Temperature Precipitation Wind Pressure Humidity
    00:00 -1°C° 0 mm 3 mps 734 mmHg 93%
    01:00 -1°C° 0 mm 3 mps 734 mmHg 93%
    02:00 -1°C° 0 mm 3 mps 735 mmHg 93%
    03:00 -1°C° 0 mm 3 mps 735 mmHg 93%
    04:00 -1°C° 0 mm 3 mps 736 mmHg 93%
    05:00 -1°C° 0 mm 3 mps 736 mmHg 93%
    06:00 -1°C° 0 mm 3 mps 737 mmHg 91%
    07:00 0°C° 0 mm 3 mps 737 mmHg 89%
    08:00 0°C° 0 mm 3 mps 738 mmHg 88%
    09:00 0°C° 0 mm 3 mps 738 mmHg 85%
    10:00 +1°C° 0 mm 3 mps 738 mmHg 82%
    11:00 +1°C° 0 mm 3 mps 738 mmHg 80%
    12:00 +2°C° 0 mm 3 mps 738 mmHg 80%
    13:00 +2°C° 0 mm 3 mps 738 mmHg 80%
    14:00 +2°C° 0 mm 3 mps 738 mmHg 81%
    15:00 +2°C° 0.1 mm 3 mps 738 mmHg 83%
    16:00 +1°C° 0.1 mm 4 mps 737 mmHg 86%
    17:00 0°C° 0.1 mm 4 mps 737 mmHg 88%
    18:00 +1°C° 0.8 mm 5 mps 736 mmHg 88%
    19:00 +1°C° 0.8 mm 5 mps 736 mmHg 88%
    20:00 +2°C° 0.8 mm 6 mps 735 mmHg 88%
    21:00 +2°C° 0.4 mm 6 mps 735 mmHg 88%
    22:00 +3°C° 0.4 mm 6 mps 735 mmHg 88%
    23:00 +3°C° 0.4 mm 6 mps 734 mmHg 88%

    28 October, Sunday

    Time Temperature Precipitation Wind Pressure Humidity
    00:00 +3°C° 0.1 mm 5 mps 734 mmHg 89%
    01:00 +3°C° 0.1 mm 5 mps 735 mmHg 90%
    02:00 +4°C° 0.1 mm 4 mps 735 mmHg 90%
    03:00 +4°C° 0.1 mm 4 mps 735 mmHg 91%
    04:00 +4°C° 0.1 mm 4 mps 735 mmHg 92%
    05:00 +4°C° 0.1 mm 3 mps 735 mmHg 93%
    06:00 +4°C° 0 mm 3 mps 736 mmHg 94%
    07:00 +4°C° 0 mm 3 mps 736 mmHg 94%
    08:00 +5°C° 0 mm 2 mps 736 mmHg 95%
    09:00 +5°C° 0.1 mm 2 mps 736 mmHg 93%
    10:00 +6°C° 0.1 mm 2 mps 736 mmHg 92%
    11:00 +7°C° 0.1 mm 1 mps 737 mmHg 91%
    12:00 +7°C° 0.2 mm 1 mps 737 mmHg 91%
    13:00 +7°C° 0.2 mm 1 mps 737 mmHg 92%
    14:00 +7°C° 0.2 mm 1 mps 736 mmHg 93%
    15:00 +7°C° 0.9 mm 1 mps 736 mmHg 94%
    16:00 +5°C° 0.9 mm 2 mps 736 mmHg 96%
    17:00 +5°C° 0.9 mm 2 mps 735 mmHg 97%
    18:00 +5°C° 1.9 mm 2 mps 735 mmHg 97%
    19:00 +4°C° 1.9 mm 3 mps 734 mmHg 97%
    20:00 +4°C° 1.9 mm 3 mps 734 mmHg 96%
    21:00 +4°C° 0.1 mm 3 mps 733 mmHg 96%
    22:00 +4°C° 0.1 mm 3 mps 733 mmHg 96%
    23:00 +4°C° 0.1 mm 3 mps 732 mmHg 95%

    29 October, Monday

    Time Temperature Precipitation Wind Pressure Humidity
    00:00 +5°C° 0.2 mm 4 mps 732 mmHg 95%
    01:00 +6°C° 0.2 mm 4 mps 731 mmHg 94%
    02:00 +7°C° 0.2 mm 5 mps 731 mmHg 93%
    03:00 +7°C° 0.1 mm 6 mps 731 mmHg 88%
    04:00 +5°C° 0.1 mm 7 mps 732 mmHg 83%
    05:00 +4°C° 0.1 mm 8 mps 732 mmHg 79%
    06:00 +4°C° 0 mm 8 mps 733 mmHg 78%
    07:00 +2°C° 0 mm 8 mps 735 mmHg 78%
    08:00 +3°C° 0 mm 7 mps 736 mmHg 77%
    09:00 +3°C° 0 mm 7 mps 738 mmHg 76%
    10:00 +3°C° 0 mm 7 mps 739 mmHg 76%
    11:00 +3°C° 0 mm 6 mps 741 mmHg 75%
    12:00 +5°C° 0 mm 5 mps 742 mmHg 75%
    13:00 +5°C° 0 mm 5 mps 743 mmHg 76%
    14:00 +5°C° 0 mm 4 mps 744 mmHg 77%
    15:00 +4°C° 0 mm 3 mps 744 mmHg 79%
    16:00 +4°C° 0 mm 3 mps 745 mmHg 81%
    17:00 +4°C° 0 mm 2 mps 746 mmHg 83%
    18:00 +4°C° 0 mm 2 mps 746 mmHg 84%
    19:00 +4°C° 0 mm 2 mps 747 mmHg 86%
    20:00 +3°C° 0 mm 2 mps 748 mmHg 87%
    21:00 +3°C° 0 mm 2 mps 748 mmHg 89%
    22:00 +2°C° 0 mm 2 mps 748 mmHg 90%
    23:00 +2°C° 0 mm 2 mps 749 mmHg 92%
    Show more